Weather in Posyolok Sovkhoza imeni Lenina

Russia / Moscow Oblast     55°35′04″N   37°44′07″E
В апреле 2022 года жителям России запретили посещать сайт meteo.paraplan.net по решению Генеральной прокуратуры. Аудитория сайта уменьшилась в 10 раз. Владельцы сайта не видят смысла в поддержке погодного сервера в таких условиях. Сайт будет закрыт в октябре.
temp.,
°C
wind,
m/s
gust,
m/s
humid.,
%
clouds,
%
prec.,
mm/h
press.,
hPa
HPBL,
m
25 september, sun
sun2500:00+7wsw3596100 1.0 997343
03:00+7ssw3597100 2.9 997327
06:00+7ssw3498100 3.6 997248
09:00+7e3596100 6.1 999359
12:00+8ne3488100 0.1 1001438
15:00+7ne2388100 0.2 1003332
18:00+7ne1190100 0.0 100496
21:00+7nnw1190100 0.1 100550
26 september, mon
mon2600:00+7nw2390100 0.1 1006112
03:00+7wnw3591100 0.3 1007177
06:00+6w3693100 0.0 1007213
09:00+7wnw358699 0.1 1008413
12:00+10wnw566762 0.1 10091174
15:00+10wnw6771100 0.4 1009920
18:00+9w4876100 0.0 1010372
21:00+8w4785100 0.0 1011256
27 september, tue
tue2700:00+6w3491100 0.0 101181
03:00+7wsw2386100 0.0 1011102
06:00+7ssw2386100 0.1 101193
09:00+7sse2394100 1.8 1011103
12:00+8se4691100 0.8 1012236
15:00+10e1280100 1.0 1012214
18:00+9ene368582 0.1 1012182
21:00+7ese498644 0.1 1012181
28 september, wed
wed2800:00+5e3789100 0.0 1012127
03:00+6e41091100 0.0 1010235
06:00+7ene61387100 0.0 1008462
09:00+7ene61394100 1.4 1006553
12:00+8e61295100 1.2 1005516
15:00+9e51198100 3.0 1003437
18:00+10e4999100 2.8 1003383
21:00+10ese41099100 4.5 1002475
29 september, thu
thu2900:00+10ese3699100 0.6 1003238
03:00+11se2498100 0.8 1003135
06:00+11sw4898100 0.0 1005351
09:00+10wsw4890100 0.0 1008440
12:00+11w6780100 0.0 1011691
15:00+12w4575100 0.0 1013777
18:00+11w3376100 0.0 101679
21:00+11sw1178100 0.0 101712